Location: Wingville
(42.9917°N, 90.4915°W)
Time: 00:26:15
(UTC+00:00)

UWE-3 - Pass Details

Date: 09 July 2022
Orbit: 583 x 677 km, 97.7° (Epoch: 16 August)

Event Time Altitude Azimuth Distance (km) Brightness Sun altitude
Rises 08:13:57 0° 32° (NNE) 2,949 ? -18.5°
Reaches altitude 10° 08:17:03 10° 55° (NE) 2,054 ? -18.2°
Maximum altitude 08:19:38 15° 91° (E) 1,747 ? -17.9°
Drops below altitude 10° 08:22:15 10° 126° (SE) 2,075 ? -17.7°
Enters shadow 08:24:44 - 146° (SE) 2,780 ? -17.4°
